STARLINK-36504, 67462

Orbit data source: Space-Track

STARLINK-36504, 67462 is a payload satellite owned by SpaceX/Seattle (US) in LEO that was launched on Wed, 14 Jan 2026 UTC via an FALCON 9 launch vehicle from the Air Force Eastern Test Range (AFETR). Payload-class satellites include a variety of spacecraft equipped with specific instruments for various scientific and technological missions. These include communications satellites like Starlink; space stations such as the ISS; scientific satellites like the Hubble; Earth observation satellites from companies like Planet Labs, Umbra, and HawkEye 360; GPS; miniature CubeSats for education and research; and military/defense satellites.

Loading next visibility...
Identifier
67462, 2026-008T
Orbit
LEO
Country
Flag of USUS
Related business
Manufacturer
SpaceX/Seattle
Mission
Operational spacecraft
Bus & Motor
STARLINK V2MO, Unknown motor
Mass
575 kg wet, ~530 kg dry
Launch date (UTC)
2026-01-14 (2 months ago)
Launch vehicle
FALCON 9
Launch site
Air Force Eastern Test Range (AFETR)
Object type
Payload
Rocket body
Debris
Shape & HBR
Unknown shape, 17.7 m
Radar Cross Section
RCS unknown

Expand to show TLE details & history
Last TLE update: 12 hours ago

TLE from 12 hours ago
0 STARLINK-36504
1 67462U 26008T   26062.75002315  .00009065  00000-0  33877-3 0  9991
2 67462  42.9996 238.7174 0001766 274.4011 111.2985 15.27557272  6036
Epoch: 2026-03-03T18:00Z
TLE epoch observation values (Epoch: 2026-03-03T18:00:02.000Z)
Latitude
17.26118°
Longitude
-173.46347°
Altitude
482.717 km
Speed
7.627 km/s
True Right ascension
17h 12m 16s
True Declination
17° 09' 36"
Sunlit
Object was in daylight at epoch
Visualization orbit readout
Latitude
Unknown
Longitude
Unknown
Altitude
Unknown
Speed
Unknown
Apparent Right ascension
Unknown
Apparent Declination
Unknown
Sunlit
N/A
Visualization observer readout
Local Sidereal Time
10:02:07
Azimuth
Unknown
Elevation
Unknown
Doppler factor
Unknown
Orbital elements
Apogee altitude
486.274 km
Perigee altitude
483.85 km
Semi-major axis
6,863.199 km
Eccentricity
0.00018
Inclination
42.9996°
RAAN
238.7174°
Arg. of periapsis
274.4011°
True anomaly
111.31735°
Mean anomaly
111.2985°
Eccentric anomaly
111.30793°
Mean motion
3.81727 °/min
Orbital period
94.31 mins
BSTAR
0.00033877
Loading maneuver chart data...
Computing Atmospheric mass density...
Loading historical data...
Loading historical data...
Loading historical data...
Loading historical data...
Loading historical data...
Loading historical data...
Loading historical data...

Documentation

Showing up to 5 results
|